SCP
-0 -0 -0 -0 -0 -0 -0 -0 -0 -0 -0 -0 -0 -0 -0 -0 -0 -0 -0 -0 -0 -0 -0 -0 -0 0 0 0 0 -0 -0 -0 -0 0 -0 0 0 0 0 0 0 0 0 0 0 0 0
-0 -0 -0 -0 -0 -0 -0 -0 -0 -0 -0 -0 -0 -0 -0 -0 -0 -0 -0 -0 -0 -0 -0 -0 -0 0 0 0 0 0 0 0 0 0 0 0 0 0 0 0 0 0 0 0 0 0 0
-0 -0 -0 -0 -0 -0 -0 -0 -0 -0 -0 -0 -0 -0 -0 -0 -0 -0 -0 -0 -0 -0 0 -0 0 0 0 0 -0 0 -0 0 0 0 0 0 0 0 0 -0 0 -0 -0 -0 -0 -0 -0
-0 -0 -0 -0 -0 -0 -0 -0 -0 -0 -0 -0 -0 -0 -0 -0 -0 -0 -0 -0 -0 -0 -0 0 0 -0 0 -0 -0 0 0 0 0 0 0 0 0 0 0 0 -0 0 0 0 0 0 -0
-0 -0 -0 -0 -0 -0 -0 -0 -0 -0 -0 -0 -0 -0 -0 -0 -0 -0 -0 -0 0 0 0 0 0 0 0 -0 -0 -0 0 0 0 0 0 0 0 -0 0 0 0 0 0 0 0 0 0
0 0 -0 -0 -0 -0 -0 -0 -0 -0 -0 -0 -0 -0 -0 -0 -0 -0 -0 -0 0 0 0 0 -0 0 0 0 -0 0 -0 -0 -0 -0 0 0 0 0 0 0 0 0 0 0 0 0 0
0 0 0 -0 -0 -0 -0 -0 -0 -0 -0 -0 -0 -0 -0 -0 -0 -0 -0 0 0 0 0 0 0 0 0 0 0 0 -0 0 -0 0 0 0 0 0 0 0 0 0 0 0 0 0 0
0 0 0 0 0 0 -0 -0 -0 -0 -0 -0 -0 -0 -0 -0 -0 -0 -0 -0 -0 0 0 0 0 0 -0 -0 0 0 0 0 0 0 0 0 0 0 0 0 0 0 0 0 0 0 0
0 0 0 0 0 0 0 0 -0 -0 -0 -0 -0 -0 -0 -0 -0 -0 -0 -0 -0 0 0 0 0 0 -0 0 -0 -0 0 0 0 0 0 0 0 0 0 0 0 0 0 0 0 0 0
0 0 0 0 0 0 0 0 -0 -0 -0 -0 -0 -0 0 -0 0 -0 -0 -0 -0 0 0 0 0 0 0 -0 0 -0 -0 0 0 0 0 0 0 0 0 0 0 0 0 0 0 0 0
0 0 0 0 0 0 0 0 -0 -0 -0 -0 -0 -0 0 -0 0 0 0 0 -0 0 0 0 0 -0 -0 0 0 0 0 0 0 0 0 0 0 0 0 0 -0 0 0 0 0 0 0
0 0 0 0 0 0 0 0 0 -0 -0 -0 -0 0 0 0 0 -0 0 0 0 0 0 0 0 0 0 0 0 0 0 0 0 0 0 0 0 0 0 0 0 0 0 0 0 0 0
0 0 0 0 0 0 0 0 0 0 -0 -0 -0 -0 0 0 0 0 0 0 0 0 0 0 0 0 0 0 0 0 0 0 0 0 0 0 0 0 0 0 0 0 0 0 0 0 0
0 0 0 0 0 0 0 0 0 0 -0 -0 -0 0 0 0 0 0 0 0 0 0 0 0 0 0 0 0 0 0 0 0 0 0 0 0 0 0 0 -0 -0 0 0 0 0 0 0
0 0 0 0 0 0 0 0 0 0 0 0 0 0 0 0 0 0 0 0 0 0 0 0 0 0 0 0 0 0 0 0 0 0 0 0 0 0 0 -0 -0 0 0 0 0 0 0
0 0 0 0 0 0 0 0 0 0 0 0 0 0 0 0 0 0 0 0 0 0 0 0 0 0 0 0 0 0 0 0 0 0 0 0 0 0 0 0 0 0 0 0 0 0 0
0 0 0 0 0 0 0 0 0 0 0 0 0 0 0 0 0 0 0 0 0 0 0 0 0 0 0 0 0 0 0 0 0 0 0 0 0 0 0 0 0 0 0 0 0 0 0
0 0 0 0 0 0 0 0 0 0 0 0 0 0 0 0 0 0 0 0 0 0 0 0 0 0 0 0 0 0 0 0 0 0 0 0 0 0 0 0 0 0 0 0 0 0 0
0 0 0 0 0 0 0 0 0 0 0 0 0 0 0 0 0 0 0 0 0 0 0 0 0 0 0 0 0 0 0 0 0 0 0 0 0 0 0 0 0 0 0 0 0 0 0
0 0 0 0 0 0 0 0 0 0 0 0 0 0 0 0 0 0 0 0 0 0 0 0 0 0 0 0 0 0 0 0 0 0 0 0 0 0 0 0 0 0 0 0 0 0 0
0 0 0 0 0 0 0 0 0 0 0 0 0 0 0 0 0 0 0 0 0 0 0 0 0 0 0 0 0 0 0 0 0 0 0 0 0 0 0 0 0 0 0 0 0 0 0
0 0 0 0 0 0 0 0 0 0 0 0 0 0 0 0 0 0 0 0 0 0 0 0 0 0 0 0 0 0 0 0 0 0 0 0 0 0 0 0 0 0 0 0 0 0 0
0 0 0 0 0 0 0 0 0 0 0 0 0 0 0 0 0 0 0 0 0 0 0 0 0 0 0 0 0 0 0 0 0 0 0 0 0 0 0 0 0 0 0 0 0 0 0
0 0 0 0 0 0 0 0 0 0 0 0 0 0 0 0 0 0 0 0 0 0 0 0 0 0 0 0 0 0 0 0 0 0 0 0 0 0 0 0 0 0 0 0 0 0 0
0 0 0 0 0 0 0 0 0 0 0 0 0 0 0 0 0 0 0 0 0 0 0 0 0 0 0 0 0 0 0 0 0 0 0 0 0 0 0 0 0 0 0 0 0 0 0
0 0 0 0 0 0 0 0 0 0 0 0 0 0 0 0 0 0 0 0 0 0 0 0 0 0 0 0 0 0 0 0 0 0 0 0 0 0 0 0 0 0 0 0 0 0 0
0 0 0 0 0 0 0 0 0 0 0 0 0 0 0 0 0 0 0 0 0 0 0 0 0 0 0 0 0 0 0 0 0 0 0 0 0 0 0 0 0 0 0 0 0 0 0
0 0 0 0 0 0 0 0 0 0 0 0 0 0 0 0 0 0 0 0 0 0 0 0 0 0 0 0 0 0 0 0 0 0 0 0 0 0 0 0 0 0 0 0 0 0 0
0 0 0 0 0 0 0 0 0 0 0 0 0 0 0 0 0 0 0 0 0 0 0 0 0 0 0 0 0 0 0 0 0 0 0 0 0 0 0 0 0 0 0 0 0 0 0
Wind_Speed_500mb
32 34 35 36 38 40 43 46 48 50 52 53 53 51 49 48 43 39 35 31 31 33 30 22 14 10 4 4 1 6 6 13 11 16 13 16 22 10 4 5 5 8 7 11 27 41 26
32 34 36 37 38 40 43 46 48 51 54 55 56 56 54 51 46 37 32 34 35 27 20 12 6 4 1 0 8 11 11 13 12 4 8 19 12 8 3 4 4 8 14 23 35 50 20
32 34 36 38 39 41 43 46 49 51 54 57 58 59 58 54 46 34 36 38 23 18 16 8 2 1 4 7 13 12 9 2 2 4 8 13 8 4 2 8 9 16 15 16 14 5 6
32 34 35 38 40 42 44 47 49 52 55 57 59 61 60 56 41 36 40 30 11 17 13 8 7 3 2 11 7 10 15 7 5 4 7 5 3 5 3 7 13 11 9 11 8 6 5
32 34 36 38 40 43 45 47 50 53 55 57 59 61 62 58 39 38 41 19 12 12 9 7 5 7 6 2 2 4 6 7 2 3 2 4 3 1 3 7 11 12 3 5 17 4 10
32 34 36 39 41 44 46 48 50 52 55 58 59 61 62 59 37 39 43 12 13 8 9 11 8 2 6 3 3 8 7 11 5 4 4 4 4 6 7 9 6 9 6 9 11 2 15
33 35 37 39 41 43 46 48 50 52 54 56 59 61 61 59 33 33 41 14 12 2 20 9 9 7 12 5 10 1 7 12 8 5 4 6 9 10 16 13 5 6 5 10 12 10 4
35 36 38 40 42 43 46 48 50 52 54 56 58 61 61 59 27 21 32 19 23 17 18 22 16 30 23 20 6 7 16 11 8 5 5 10 6 13 11 10 11 8 5 12 13 5 4
36 37 39 41 43 44 46 48 50 52 54 56 57 59 61 58 25 24 18 23 17 21 5 15 6 3 2 9 6 7 19 11 7 8 7 9 9 6 6 3 3 5 7 7 13 11 5
38 39 40 41 44 45 48 49 50 51 53 54 56 59 61 57 22 31 6 24 19 13 9 9 5 2 4 5 6 7 13 8 2 6 16 7 9 3 10 1 6 4 10 11 7 7 6
38 39 41 43 44 46 48 49 50 51 53 53 53 56 58 54 37 16 19 20 11 3 7 4 2 2 2 7 7 2 13 14 9 8 10 10 5 4 8 6 1 8 7 4 2 5 7
39 39 40 42 44 46 48 50 51 52 52 53 51 51 54 49 23 21 20 17 1 10 1 7 7 9 6 3 5 2 6 7 6 8 7 7 3 6 4 4 4 11 6 14 9 6 6
39 40 40 42 45 47 48 49 50 50 52 52 49 47 49 23 20 22 27 4 9 7 7 10 6 10 4 9 10 5 5 9 3 8 10 11 7 9 8 11 9 16 11 7 10 10 9
41 41 42 42 45 46 48 49 50 50 51 51 48 45 28 8 19 26 26 8 3 2 4 5 9 5 8 12 8 15 7 6 11 9 6 5 8 8 12 3 6 6 8 9 6 6 8
42 43 43 43 44 45 47 49 49 48 50 52 47 39 10 7 17 27 11 8 9 3 9 12 5 11 11 10 7 7 9 4 1 5 10 6 6 8 2 4 6 7 9 2 8 5 3
41 42 43 43 44 45 46 47 48 46 46 48 46 36 9 11 18 25 9 6 5 6 8 5 4 3 7 11 10 10 6 5 4 6 4 10 1 5 11 8 12 13 3 9 8 5 7
38 40 40 41 41 41 42 45 46 45 42 40 35 19 8 13 17 8 7 8 8 14 9 6 3 4 4 4 0 3 3 4 11 3 13 7 6 8 4 6 2 9 6 11 8 7 5
35 35 37 38 38 39 38 39 42 44 39 32 17 6 12 17 9 4 1 3 10 9 14 8 2 4 5 3 4 5 6 6 27 3 4 4 9 4 9 5 7 5 8 9 9 9 7
42 38 36 34 34 34 35 34 35 35 36 37 30 12 8 1 4 4 11 8 5 13 12 13 10 7 3 5 6 8 6 12 28 8 6 9 3 4 15 11 8 3 3 8 7 6 11
41 44 44 39 35 33 31 31 29 26 25 27 14 7 7 14 10 7 6 7 11 21 4 10 5 7 5 7 10 4 9 4 13 6 15 8 6 12 12 13 6 9 10 11 11 7 7
39 39 38 39 41 34 30 29 28 24 17 14 6 4 2 5 6 7 1 5 4 12 9 14 6 5 4 6 3 2 3 9 5 4 6 8 5 11 10 13 9 11 20 22 14 14 11
35 35 37 39 40 35 29 28 26 24 15 7 5 6 8 7 8 4 3 1 2 9 3 9 4 5 1 10 12 13 8 7 10 3 4 1 6 12 11 17 14 10 19 19 24 12 12
38 36 34 34 35 36 32 26 22 22 13 3 5 7 6 6 5 2 5 2 2 6 7 6 12 2 4 5 17 10 19 12 13 9 6 6 10 5 14 8 6 12 11 8 3 1 4
39 38 36 35 32 32 31 26 22 19 7 5 13 10 5 8 3 7 5 5 6 7 7 23 16 2 4 29 7 9 9 14 14 20 13 6 7 6 7 1 5 11 2 3 4 11 13
37 38 35 34 33 31 30 26 19 18 8 9 16 13 7 7 10 11 11 7 10 15 9 10 16 15 29 4 6 8 10 14 5 6 4 11 8 3 4 6 8 2 5 4 2 11 10
36 35 35 35 32 31 29 27 21 19 15 16 16 18 13 4 12 18 8 9 5 4 10 13 18 18 10 6 6 9 7 9 8 13 8 12 8 7 2 3 6 12 4 6 6 10 3
36 37 36 34 32 31 29 27 24 19 21 16 19 14 15 11 26 14 9 7 9 5 3 11 16 13 12 4 4 7 8 8 6 5 5 6 5 7 6 7 12 6 5 7 3 11 8
32 35 37 33 33 33 30 29 26 19 24 24 20 24 25 12 37 29 16 18 11 9 7 6 11 4 6 5 5 5 6 7 1 7 5 7 4 4 2 3 9 13 7 9 8 19 25
33 34 34 33 32 32 32 29 30 20 29 30 23 26 25 34 26 27 30 37 42 41 31 12 7 3 5 7 1 3 3 0 5 5 2 3 9 6 13 11 7 11 24 27 25 31 33
Wind_Direction_500mb
10 9 8 8 6 6 6 6 7 6 6 6 4 2 357 351 345 338 334 329 330 324 317 307 297 296 303 282 203 196 66 61 104 157 183 183 171 157 176 211 275 199 262 267 287 298 268
5 5 5 4 3 3 4 4 5 5 4 5 4 3 359 353 347 344 338 331 330 326 330 329 296 273 176 214 104 131 100 78 85 140 172 175 190 174 268 253 166 256 266 283 302 300 304
0 1 1 1 0 1 1 1 2 3 3 3 4 3 1 356 351 348 339 336 339 355 3 17 43 139 221 120 135 155 159 175 64 15 207 177 187 215 319 315 319 305 332 339 333 32 318
357 357 358 358 357 358 359 359 359 0 1 2 3 4 3 357 356 351 345 348 6 6 12 50 54 30 153 152 180 205 210 217 259 1 102 180 214 254 247 310 349 22 41 359 296 11 352
353 353 354 354 354 355 356 357 357 358 359 0 2 4 3 359 357 354 350 350 339 350 12 12 18 17 125 131 160 176 192 192 180 311 26 230 321 236 43 70 2 7 270 268 318 242 4
347 348 349 350 351 352 353 354 355 356 356 357 359 1 3 0 357 358 356 334 335 329 337 319 292 34 130 97 44 305 214 190 245 322 91 163 107 61 34 72 245 257 304 300 253 300 1
340 342 343 345 346 348 349 351 352 353 354 354 355 357 1 359 352 359 5 358 354 4 322 265 273 267 296 253 307 170 177 178 201 168 117 33 70 230 233 200 201 259 237 231 270 263 256
332 334 337 339 342 344 345 346 348 350 351 350 351 352 356 358 352 2 3 51 30 333 314 310 279 257 261 273 291 166 176 162 161 160 108 27 242 248 252 162 200 218 262 290 283 307 134
326 328 331 334 336 338 340 342 344 346 348 347 347 347 350 357 354 347 351 20 352 338 302 301 319 302 55 182 226 202 187 183 157 135 177 161 253 318 185 338 146 156 182 241 225 352 11
320 323 326 328 330 333 335 337 339 341 343 343 345 343 346 351 354 342 350 345 337 322 48 293 339 70 200 224 276 234 229 175 116 206 151 211 275 342 65 354 102 151 212 243 263 106 220
318 320 322 324 326 328 330 331 334 336 337 338 342 340 342 345 340 348 329 331 330 305 60 320 344 39 200 198 308 2 201 199 176 181 103 258 148 98 78 307 276 251 317 287 272 142 91
319 320 322 323 324 325 326 328 330 332 332 332 338 339 338 340 351 346 341 333 126 43 180 358 356 354 14 249 263 234 165 162 108 133 25 244 338 60 308 355 45 312 3 32 47 88 53
318 319 320 322 324 326 326 328 329 331 331 330 334 337 336 343 353 351 343 344 39 116 337 334 330 20 11 320 339 344 128 29 85 22 358 4 348 322 34 30 9 39 50 352 9 13 220
314 316 319 321 322 323 324 324 326 329 330 329 333 337 333 350 1 353 346 49 107 332 303 321 2 354 63 3 2 349 57 67 31 82 82 73 331 4 343 170 254 24 127 146 257 207 259
309 312 314 317 319 322 322 322 324 326 327 327 333 343 4 353 344 347 347 68 189 337 325 339 16 55 355 355 10 50 41 101 123 159 118 87 304 316 91 341 111 317 39 197 105 28 35
309 310 310 312 315 318 320 321 323 325 326 329 335 339 349 340 337 339 69 217 246 225 325 9 81 124 46 339 39 33 18 327 38 54 80 195 323 360 302 35 31 96 184 25 9 3 307
314 313 313 312 311 312 316 319 322 324 328 333 338 327 329 356 340 7 116 233 279 293 344 184 207 75 65 25 87 27 342 82 8 26 84 124 108 288 354 36 181 4 24 57 115 131 192
319 318 317 316 315 314 315 318 323 326 333 336 348 344 331 311 24 47 108 219 316 312 357 358 104 111 129 192 2 48 76 352 340 232 75 46 128 173 241 281 288 251 154 122 118 273 231
321 321 320 320 319 316 316 317 321 328 343 352 335 294 336 208 118 328 314 302 301 352 0 4 349 30 60 90 46 36 16 347 23 59 140 184 23 33 346 352 349 246 220 119 100 80 217
315 319 321 321 322 321 319 316 316 323 334 343 329 350 354 59 69 114 20 340 331 353 274 357 294 59 88 56 19 126 360 316 10 79 55 100 121 163 193 215 173 271 230 223 156 154 218
313 314 312 312 316 321 320 315 312 315 319 336 316 317 15 316 358 6 317 335 20 353 333 351 0 47 148 119 68 100 327 321 351 4 50 98 210 193 246 234 219 238 258 267 199 217 197
304 306 310 313 314 314 315 315 313 310 309 301 303 347 343 289 300 294 355 321 76 317 254 330 68 319 34 166 184 196 191 205 241 292 143 35 237 184 237 238 251 235 243 244 250 238 238
306 305 304 307 308 309 311 310 306 307 314 339 307 295 303 296 330 69 212 143 98 342 267 246 310 312 258 288 221 232 237 244 231 218 200 172 165 142 267 243 323 305 240 237 247 110 177
300 300 303 304 304 303 302 303 299 294 324 274 268 308 294 271 194 213 178 325 285 315 257 304 323 163 334 319 258 263 276 280 286 288 193 191 120 168 264 99 206 243 333 168 198 259 228
293 297 301 301 305 303 296 292 284 277 272 262 252 253 265 269 245 288 258 229 296 300 260 263 278 319 320 275 68 28 346 5 337 34 31 183 129 168 198 209 273 295 255 232 158 285 258
285 286 293 297 301 305 300 289 274 252 240 262 247 260 233 259 239 238 207 200 203 253 318 267 291 328 322 81 82 147 209 216 303 331 103 91 94 122 156 223 237 241 351 144 134 297 302
285 282 283 289 294 299 304 296 277 243 227 251 249 268 229 256 263 256 220 202 176 161 204 298 336 332 360 79 118 166 231 195 228 235 298 341 7 171 191 239 285 251 193 140 78 248 298
289 288 277 279 288 291 297 298 288 241 220 232 248 248 247 245 260 257 255 229 201 187 145 310 347 306 15 67 138 221 182 229 180 228 206 192 135 230 116 225 283 190 129 178 215 312 317
287 291 283 270 279 287 292 294 292 251 217 218 254 249 261 236 256 259 257 251 245 255 270 239 243 207 237 95 166 119 258 158 172 255 41 231 181 205 177 226 241 237 255 268 284 292 308
Wind_Speed_850mb
32 34 35 36 38 40 43 46 48 50 52 53 53 51 49 48 43 39 35 31 31 33 30 22 14 10 4 4 1 6 6 13 11 16 13 16 22 10 4 5 5 8 7 11 27 41 26
32 34 36 37 38 40 43 46 48 51 54 55 56 56 54 51 46 37 32 34 35 27 20 12 6 4 1 0 8 11 11 13 12 4 8 19 12 8 3 4 4 8 14 23 35 50 20
32 34 36 38 39 41 43 46 49 51 54 57 58 59 58 54 46 34 36 38 23 18 16 8 2 1 4 7 13 12 9 2 2 4 8 13 8 4 2 8 9 16 15 16 14 5 6
32 34 35 38 40 42 44 47 49 52 55 57 59 61 60 56 41 36 40 30 11 17 13 8 7 3 2 11 7 10 15 7 5 4 7 5 3 5 3 7 13 11 9 11 8 6 5
32 34 36 38 40 43 45 47 50 53 55 57 59 61 62 58 39 38 41 19 12 12 9 7 5 7 6 2 2 4 6 7 2 3 2 4 3 1 3 7 11 12 3 5 17 4 10
32 34 36 39 41 44 46 48 50 52 55 58 59 61 62 59 37 39 43 12 13 8 9 11 8 2 6 3 3 8 7 11 5 4 4 4 4 6 7 9 6 9 6 9 11 2 15
33 35 37 39 41 43 46 48 50 52 54 56 59 61 61 59 33 33 41 14 12 2 20 9 9 7 12 5 10 1 7 12 8 5 4 6 9 10 16 13 5 6 5 10 12 10 4
35 36 38 40 42 43 46 48 50 52 54 56 58 61 61 59 27 21 32 19 23 17 18 22 16 30 23 20 6 7 16 11 8 5 5 10 6 13 11 10 11 8 5 12 13 5 4
36 37 39 41 43 44 46 48 50 52 54 56 57 59 61 58 25 24 18 23 17 21 5 15 6 3 2 9 6 7 19 11 7 8 7 9 9 6 6 3 3 5 7 7 13 11 5
38 39 40 41 44 45 48 49 50 51 53 54 56 59 61 57 22 31 6 24 19 13 9 9 5 2 4 5 6 7 13 8 2 6 16 7 9 3 10 1 6 4 10 11 7 7 6
38 39 41 43 44 46 48 49 50 51 53 53 53 56 58 54 37 16 19 20 11 3 7 4 2 2 2 7 7 2 13 14 9 8 10 10 5 4 8 6 1 8 7 4 2 5 7
39 39 40 42 44 46 48 50 51 52 52 53 51 51 54 49 23 21 20 17 1 10 1 7 7 9 6 3 5 2 6 7 6 8 7 7 3 6 4 4 4 11 6 14 9 6 6
39 40 40 42 45 47 48 49 50 50 52 52 49 47 49 23 20 22 27 4 9 7 7 10 6 10 4 9 10 5 5 9 3 8 10 11 7 9 8 11 9 16 11 7 10 10 9
41 41 42 42 45 46 48 49 50 50 51 51 48 45 28 8 19 26 26 8 3 2 4 5 9 5 8 12 8 15 7 6 11 9 6 5 8 8 12 3 6 6 8 9 6 6 8
42 43 43 43 44 45 47 49 49 48 50 52 47 39 10 7 17 27 11 8 9 3 9 12 5 11 11 10 7 7 9 4 1 5 10 6 6 8 2 4 6 7 9 2 8 5 3
41 42 43 43 44 45 46 47 48 46 46 48 46 36 9 11 18 25 9 6 5 6 8 5 4 3 7 11 10 10 6 5 4 6 4 10 1 5 11 8 12 13 3 9 8 5 7
38 40 40 41 41 41 42 45 46 45 42 40 35 19 8 13 17 8 7 8 8 14 9 6 3 4 4 4 0 3 3 4 11 3 13 7 6 8 4 6 2 9 6 11 8 7 5
35 35 37 38 38 39 38 39 42 44 39 32 17 6 12 17 9 4 1 3 10 9 14 8 2 4 5 3 4 5 6 6 27 3 4 4 9 4 9 5 7 5 8 9 9 9 7
42 38 36 34 34 34 35 34 35 35 36 37 30 12 8 1 4 4 11 8 5 13 12 13 10 7 3 5 6 8 6 12 28 8 6 9 3 4 15 11 8 3 3 8 7 6 11
41 44 44 39 35 33 31 31 29 26 25 27 14 7 7 14 10 7 6 7 11 21 4 10 5 7 5 7 10 4 9 4 13 6 15 8 6 12 12 13 6 9 10 11 11 7 7
39 39 38 39 41 34 30 29 28 24 17 14 6 4 2 5 6 7 1 5 4 12 9 14 6 5 4 6 3 2 3 9 5 4 6 8 5 11 10 13 9 11 20 22 14 14 11
35 35 37 39 40 35 29 28 26 24 15 7 5 6 8 7 8 4 3 1 2 9 3 9 4 5 1 10 12 13 8 7 10 3 4 1 6 12 11 17 14 10 19 19 24 12 12
38 36 34 34 35 36 32 26 22 22 13 3 5 7 6 6 5 2 5 2 2 6 7 6 12 2 4 5 17 10 19 12 13 9 6 6 10 5 14 8 6 12 11 8 3 1 4
39 38 36 35 32 32 31 26 22 19 7 5 13 10 5 8 3 7 5 5 6 7 7 23 16 2 4 29 7 9 9 14 14 20 13 6 7 6 7 1 5 11 2 3 4 11 13
37 38 35 34 33 31 30 26 19 18 8 9 16 13 7 7 10 11 11 7 10 15 9 10 16 15 29 4 6 8 10 14 5 6 4 11 8 3 4 6 8 2 5 4 2 11 10
36 35 35 35 32 31 29 27 21 19 15 16 16 18 13 4 12 18 8 9 5 4 10 13 18 18 10 6 6 9 7 9 8 13 8 12 8 7 2 3 6 12 4 6 6 10 3
36 37 36 34 32 31 29 27 24 19 21 16 19 14 15 11 26 14 9 7 9 5 3 11 16 13 12 4 4 7 8 8 6 5 5 6 5 7 6 7 12 6 5 7 3 11 8
32 35 37 33 33 33 30 29 26 19 24 24 20 24 25 12 37 29 16 18 11 9 7 6 11 4 6 5 5 5 6 7 1 7 5 7 4 4 2 3 9 13 7 9 8 19 25
33 34 34 33 32 32 32 29 30 20 29 30 23 26 25 34 26 27 30 37 42 41 31 12 7 3 5 7 1 3 3 0 5 5 2 3 9 6 13 11 7 11 24 27 25 31 33
Wind_Direction_850mb
10 9 8 8 6 6 6 6 7 6 6 6 4 2 357 351 345 338 334 329 330 324 317 307 297 296 303 282 203 196 66 61 104 157 183 183 171 157 176 211 275 199 262 267 287 298 268
5 5 5 4 3 3 4 4 5 5 4 5 4 3 359 353 347 344 338 331 330 326 330 329 296 273 176 214 104 131 100 78 85 140 172 175 190 174 268 253 166 256 266 283 302 300 304
0 1 1 1 0 1 1 1 2 3 3 3 4 3 1 356 351 348 339 336 339 355 3 17 43 139 221 120 135 155 159 175 64 15 207 177 187 215 319 315 319 305 332 339 333 32 318
357 357 358 358 357 358 359 359 359 0 1 2 3 4 3 357 356 351 345 348 6 6 12 50 54 30 153 152 180 205 210 217 259 1 102 180 214 254 247 310 349 22 41 359 296 11 352
353 353 354 354 354 355 356 357 357 358 359 0 2 4 3 359 357 354 350 350 339 350 12 12 18 17 125 131 160 176 192 192 180 311 26 230 321 236 43 70 2 7 270 268 318 242 4
347 348 349 350 351 352 353 354 355 356 356 357 359 1 3 0 357 358 356 334 335 329 337 319 292 34 130 97 44 305 214 190 245 322 91 163 107 61 34 72 245 257 304 300 253 300 1
340 342 343 345 346 348 349 351 352 353 354 354 355 357 1 359 352 359 5 358 354 4 322 265 273 267 296 253 307 170 177 178 201 168 117 33 70 230 233 200 201 259 237 231 270 263 256
332 334 337 339 342 344 345 346 348 350 351 350 351 352 356 358 352 2 3 51 30 333 314 310 279 257 261 273 291 166 176 162 161 160 108 27 242 248 252 162 200 218 262 290 283 307 134
326 328 331 334 336 338 340 342 344 346 348 347 347 347 350 357 354 347 351 20 352 338 302 301 319 302 55 182 226 202 187 183 157 135 177 161 253 318 185 338 146 156 182 241 225 352 11
320 323 326 328 330 333 335 337 339 341 343 343 345 343 346 351 354 342 350 345 337 322 48 293 339 70 200 224 276 234 229 175 116 206 151 211 275 342 65 354 102 151 212 243 263 106 220
318 320 322 324 326 328 330 331 334 336 337 338 342 340 342 345 340 348 329 331 330 305 60 320 344 39 200 198 308 2 201 199 176 181 103 258 148 98 78 307 276 251 317 287 272 142 91
319 320 322 323 324 325 326 328 330 332 332 332 338 339 338 340 351 346 341 333 126 43 180 358 356 354 14 249 263 234 165 162 108 133 25 244 338 60 308 355 45 312 3 32 47 88 53
318 319 320 322 324 326 326 328 329 331 331 330 334 337 336 343 353 351 343 344 39 116 337 334 330 20 11 320 339 344 128 29 85 22 358 4 348 322 34 30 9 39 50 352 9 13 220
314 316 319 321 322 323 324 324 326 329 330 329 333 337 333 350 1 353 346 49 107 332 303 321 2 354 63 3 2 349 57 67 31 82 82 73 331 4 343 170 254 24 127 146 257 207 259
309 312 314 317 319 322 322 322 324 326 327 327 333 343 4 353 344 347 347 68 189 337 325 339 16 55 355 355 10 50 41 101 123 159 118 87 304 316 91 341 111 317 39 197 105 28 35
309 310 310 312 315 318 320 321 323 325 326 329 335 339 349 340 337 339 69 217 246 225 325 9 81 124 46 339 39 33 18 327 38 54 80 195 323 360 302 35 31 96 184 25 9 3 307
314 313 313 312 311 312 316 319 322 324 328 333 338 327 329 356 340 7 116 233 279 293 344 184 207 75 65 25 87 27 342 82 8 26 84 124 108 288 354 36 181 4 24 57 115 131 192
319 318 317 316 315 314 315 318 323 326 333 336 348 344 331 311 24 47 108 219 316 312 357 358 104 111 129 192 2 48 76 352 340 232 75 46 128 173 241 281 288 251 154 122 118 273 231
321 321 320 320 319 316 316 317 321 328 343 352 335 294 336 208 118 328 314 302 301 352 0 4 349 30 60 90 46 36 16 347 23 59 140 184 23 33 346 352 349 246 220 119 100 80 217
315 319 321 321 322 321 319 316 316 323 334 343 329 350 354 59 69 114 20 340 331 353 274 357 294 59 88 56 19 126 360 316 10 79 55 100 121 163 193 215 173 271 230 223 156 154 218
313 314 312 312 316 321 320 315 312 315 319 336 316 317 15 316 358 6 317 335 20 353 333 351 0 47 148 119 68 100 327 321 351 4 50 98 210 193 246 234 219 238 258 267 199 217 197
304 306 310 313 314 314 315 315 313 310 309 301 303 347 343 289 300 294 355 321 76 317 254 330 68 319 34 166 184 196 191 205 241 292 143 35 237 184 237 238 251 235 243 244 250 238 238
306 305 304 307 308 309 311 310 306 307 314 339 307 295 303 296 330 69 212 143 98 342 267 246 310 312 258 288 221 232 237 244 231 218 200 172 165 142 267 243 323 305 240 237 247 110 177
300 300 303 304 304 303 302 303 299 294 324 274 268 308 294 271 194 213 178 325 285 315 257 304 323 163 334 319 258 263 276 280 286 288 193 191 120 168 264 99 206 243 333 168 198 259 228
293 297 301 301 305 303 296 292 284 277 272 262 252 253 265 269 245 288 258 229 296 300 260 263 278 319 320 275 68 28 346 5 337 34 31 183 129 168 198 209 273 295 255 232 158 285 258
285 286 293 297 301 305 300 289 274 252 240 262 247 260 233 259 239 238 207 200 203 253 318 267 291 328 322 81 82 147 209 216 303 331 103 91 94 122 156 223 237 241 351 144 134 297 302
285 282 283 289 294 299 304 296 277 243 227 251 249 268 229 256 263 256 220 202 176 161 204 298 336 332 360 79 118 166 231 195 228 235 298 341 7 171 191 239 285 251 193 140 78 248 298
289 288 277 279 288 291 297 298 288 241 220 232 248 248 247 245 260 257 255 229 201 187 145 310 347 306 15 67 138 221 182 229 180 228 206 192 135 230 116 225 283 190 129 178 215 312 317
287 291 283 270 279 287 292 294 292 251 217 218 254 249 261 236 256 259 257 251 245 255 270 239 243 207 237 95 166 119 258 158 172 255 41 231 181 205 177 226 241 237 255 268 284 292 308